Tiree, United Kingdom

5:41 AM GMT on February 21, 2018 (GMT +0000)
Tiree

Weather History for EGPU - March, 2013

Change the Weather History Date:

Saturday, March 23, 2013

  Actual Average Record
Temperature  
Mean Temperature 37 °F -  
Max Temperature 39 °F 49 °F 55 °F (2011)
Min Temperature 35 °F 40 °F 33 °F (2017)
Degree Days  
Heating Degree Days 28    
Moisture  
Dew Point 27 °F    
Average Humidity 65    
Maximum Humidity 81    
Minimum Humidity 48    
Precipitation  
Precipitation 0.00 in 0.09 in - ()
Sea Level Pressure  
Sea Level Pressure 30.01 in    
Wind  
Wind Speed 33 mph ()    
Max Wind Speed 45 mph    
Max Gust Speed 58 mph    
Visibility 6.7 miles    
Events Rain , Snow    
Averages and records for this station are not official NWS values.
T = Trace of Precipitation, MM = Missing Value Source: Averaged Metar Reports

Daily Weather History Graph

Daily Weather History Graph

Search for Another Location

Airport or City:

Trip Planner

Search our weather history database for the weather conditions in past years. The results will help you decide how hot, cold, wet, or windy it might be!

Date:

Astronomy

Mar. 23, 2013 Rise Set
Actual Time 6:21 AM GMT 6:47 PM GMT
Civil Twilight 5:43 AM GMT 7:25 PM GMT
Nautical Twilight 4:58 AM GMT 8:11 PM GMT
Astronomical Twilight 4:09 AM GMT 9:00 PM GMT
Moon 2:23 PM GMT (3/23) 4:30 AM GMT (3/23)
Length of Visible Light 13h 42m
Length of Day
12h 26m
Waxing Gibbous, 83% of the Moon is Illuminated
Mar 23
Waxing Gibbous
Mar 27
Full
Apr 3
Last Quarter
Apr 10
New
Apr 18
First Quarter

Hourly Weather History & Observations

Time (GMT) Temp. Windchill Dew Point Humidity Pressure Visibility Wind Dir Wind Speed Gust Speed Precip Events Conditions
12:20 AM 37.4 °F 22.7 °F 28.4 °F 70% 29.86 in 6.2 mi SE 44.9 mph 57.5 mph N/A Rain Light Rain Showers
12:50 AM 37.4 °F 23.1 °F 28.4 °F 70% 29.89 in 6.2 mi ESE 41.4 mph - N/A   Mostly Cloudy
1:20 AM 37.4 °F 23.0 °F 28.4 °F 70% 29.89 in 6.2 mi SE 42.6 mph - N/A   Partly Cloudy
1:50 AM 37.4 °F 23.1 °F 28.4 °F 70% 29.89 in 6.2 mi ESE 41.4 mph - N/A   Scattered Clouds
2:20 AM 37.4 °F 23.5 °F 28.4 °F 70% 29.89 in 6.2 mi ESE 39.1 mph - N/A   Mostly Cloudy
2:50 AM 37 °F - 28 °F 59% 29.91 in 11 mi ESE 42.6 mph - - Rain Rain
2:50 AM 37.4 °F 23.0 °F 28.4 °F 70% 29.89 in 6.2 mi ESE 42.6 mph 54.1 mph N/A   Mostly Cloudy
3:20 AM 37.4 °F 23.6 °F 28.4 °F 70% 29.89 in 6.2 mi ESE 38.0 mph 49.5 mph N/A   Mostly Cloudy
3:50 AM 37.4 °F 23.5 °F 28.4 °F 70% 29.89 in 6.2 mi ESE 39.1 mph - N/A   Mostly Cloudy
4:20 AM 37.4 °F 23.6 °F 28.4 °F 70% 29.92 in 6.2 mi ESE 38.0 mph 49.5 mph N/A   Mostly Cloudy
4:50 AM 37.4 °F 23.8 °F 28.4 °F 70% 29.92 in 6.2 mi ESE 36.8 mph - N/A Rain Light Rain Showers
5:20 AM 37.4 °F 24.4 °F 28.4 °F 70% 29.92 in 6.2 mi ESE 33.4 mph 44.9 mph N/A   Mostly Cloudy
5:50 AM 36 °F - 30 °F 70% 29.95 in 11 mi ESE 31.1 mph - - Rain Rain
5:50 AM 35.6 °F 22.3 °F 30.2 °F 81% 29.95 in 6.2 mi ESE 31.1 mph - N/A   Mostly Cloudy
6:20 AM 35.6 °F 22.1 °F 30.2 °F 81% 29.95 in 6.2 mi ESE 32.2 mph 43.7 mph N/A   Mostly Cloudy
6:50 AM 35.6 °F 22.3 °F 30.2 °F 81% 29.95 in 6.2 mi ESE 31.1 mph - N/A Rain Light Rain Showers
7:20 AM 35.6 °F 21.7 °F 30.2 °F 81% 29.95 in 6.2 mi ESE 34.5 mph 47.2 mph N/A Rain Light Rain
7:50 AM 35.6 °F 22.3 °F 28.4 °F 75% 29.98 in 6.2 mi ESE 31.1 mph - N/A Snow Light Snow
8:20 AM 35.6 °F 21.5 °F 30.2 °F 81% 29.98 in 4.3 mi ESE 35.7 mph - N/A Snow Light Snow
8:50 AM 36 °F - 29 °F 67% 30.00 in 10 mi ESE 32.2 mph - - Rain Light Rain
8:50 AM 35.6 °F 22.1 °F 28.4 °F 75% 29.98 in 6.2 mi ESE 32.2 mph 44.9 mph N/A Rain Light Rain
9:20 AM 37.4 °F 23.6 °F 26.6 °F 65% 29.98 in 6.2 mi ESE 38.0 mph - N/A Rain , Snow Light Snow Showers
9:50 AM 37.4 °F 24.4 °F 26.6 °F 65% 30.01 in 6.2 mi ESE 33.4 mph - N/A   Overcast
10:20 AM 37.4 °F 24.2 °F 28.4 °F 70% 30.01 in 6.2 mi ESE 34.5 mph 46.0 mph N/A Rain , Snow Light Snow Showers
10:50 AM 37.4 °F 24.6 °F 26.6 °F 65% 30.01 in 6.2 mi ESE 32.2 mph - N/A   Mostly Cloudy
11:20 AM 37.4 °F 24.4 °F 26.6 °F 65% 30.01 in 6.2 mi ESE 33.4 mph - N/A   Mostly Cloudy
11:50 AM 37 °F - 26 °F 54% 30.04 in 6 mi ESE 33.4 mph - - Snow Light Snow Showers
11:50 AM 37.4 °F 24.4 °F 26.6 °F 65% 30.01 in 6.2 mi ESE 33.4 mph - N/A Snow Light Snow Showers
12:20 PM 37.4 °F 24.6 °F 26.6 °F 65% 30.04 in 6.2 mi ESE 32.2 mph - N/A Rain Light Rain
12:50 PM 37.4 °F 24.6 °F 26.6 °F 65% 30.04 in 6.2 mi ESE 32.2 mph 44.9 mph N/A Rain Light Rain Showers
1:20 PM 37.4 °F 24.6 °F 26.6 °F 65% 30.04 in 6.2 mi ESE 32.2 mph - N/A Rain Light Rain
1:50 PM 39.2 °F 26.8 °F 26.6 °F 61% 30.04 in 6.2 mi ESE 33.4 mph - N/A Rain Light Rain
2:20 PM 39.2 °F 26.6 °F 26.6 °F 61% 30.04 in 6.2 mi SE 34.5 mph - N/A   Scattered Clouds
2:50 PM 39 °F - 26 °F 48% 30.04 in 9 mi SE 33.4 mph - - Rain Rain
2:50 PM 39.2 °F 26.8 °F 26.6 °F 61% 30.04 in 6.2 mi SE 33.4 mph - N/A   Mostly Cloudy
3:20 PM 39.2 °F 27.0 °F 24.8 °F 56% 30.04 in 6.2 mi ESE 32.2 mph 43.7 mph N/A   Scattered Clouds
3:50 PM 37.4 °F 25.0 °F 24.8 °F 60% 30.04 in 6.2 mi ESE 29.9 mph - N/A   Scattered Clouds
4:20 PM 37.4 °F 25.2 °F 24.8 °F 60% 30.04 in 6.2 mi ESE 28.8 mph - N/A   Scattered Clouds
4:50 PM 37.4 °F 24.8 °F 24.8 °F 60% 30.04 in 6.2 mi ESE 31.1 mph - N/A   Mostly Cloudy
5:20 PM 37.4 °F 25.2 °F 24.8 °F 60% 30.04 in 6.2 mi ESE 28.8 mph - N/A   Mostly Cloudy
5:50 PM 37 °F - 24 °F 48% 30.07 in 11 mi ESE 31.1 mph - -   Mostly Cloudy
5:50 PM 37.4 °F 24.8 °F 24.8 °F 60% 30.06 in 6.2 mi ESE 31.1 mph - N/A   Mostly Cloudy
6:20 PM 37.4 °F 25.2 °F 24.8 °F 60% 30.06 in 6.2 mi ESE 28.8 mph - N/A   Mostly Cloudy
6:50 PM 35.6 °F 22.5 °F 23.0 °F 60% 30.06 in 6.2 mi ESE 29.9 mph - N/A   Scattered Clouds
7:20 PM 37.4 °F 25.2 °F 24.8 °F 60% 30.09 in 6.2 mi ESE 28.8 mph - N/A   Scattered Clouds
7:50 PM 35.6 °F 23.2 °F 24.8 °F 65% 30.09 in 6.2 mi ESE 26.5 mph - N/A   Scattered Clouds
8:20 PM 35.6 °F 23.2 °F 24.8 °F 65% 30.09 in 6.2 mi ESE 26.5 mph - N/A   Scattered Clouds
8:50 PM 36 °F - 25 °F 52% 30.11 in 11 mi ESE 26.5 mph - -   Unknown Precipitation
8:50 PM 35.6 °F 23.2 °F 24.8 °F 65% 30.09 in 6.2 mi ESE 26.5 mph - N/A   Scattered Clouds
9:20 PM 35.6 °F 22.7 °F 24.8 °F 65% 30.09 in 6.2 mi ESE 28.8 mph - N/A   Scattered Clouds
9:50 PM 35.6 °F 22.7 °F 24.8 °F 65% 30.09 in 6.2 mi ESE 28.8 mph - N/A   Scattered Clouds
10:20 PM 35.6 °F 22.5 °F 23.0 °F 60% 30.12 in 6.2 mi ESE 29.9 mph - N/A   Mostly Cloudy
10:50 PM 35.6 °F 22.7 °F 23.0 °F 60% 30.12 in 6.2 mi ESE 28.8 mph - N/A   Mostly Cloudy
11:20 PM 35.6 °F 22.7 °F 23.0 °F 60% 30.12 in 6.2 mi ESE 28.8 mph - N/A   Scattered Clouds
11:50 PM 36 °F - 24 °F 49% 30.14 in 12 mi ESE 25.3 mph - -   Mostly Cloudy
11:50 PM 35.6 °F 23.4 °F 24.8 °F 65% 30.12 in 6.2 mi ESE 25.3 mph - N/A   Mostly Cloudy